Погода в Кузнечихе

Россия / Республика Татарстан     54°43′23″N   49°36′50″E
темп.,
°C
ветер,
м/с
пор.,
м/с
влажн.,
%
обл.,
%
осадки,
мм/ч
давл.,
гПа
погр.,
м
10 мая, пн
пн1000:00+15юв4118095 0.6 1013201
03:00+14юв41283100 0.6 1014209
06:00+15юв2875100 0.2 1016258
09:00+20юв5954100 0.2 1017520
12:00+23юв564195 0.0 10181444
15:00+24вюв453998 0.0 10182372
18:00+20всв4863100 0.0 1019151
21:00+16всв4661100 0.0 102186
11 мая, вт
вт1100:00+15в4665100 0.0 102188
03:00+14в3566100 0.0 102261
06:00+15в3669100 0.0 1023130
09:00+21в4650100 0.0 1024483
12:00+24вюв4540100 0.0 10252277
15:00+24юв4438100 0.0 10252356
18:00+21юв3358100 0.0 102642
21:00+18в3461100 0.0 102758
12 мая, ср
ср1200:00+16вюв236596 0.0 102724
03:00+15в22666 0.0 102723
06:00+17вюв35677 0.0 1027147
09:00+22вюв464946 0.0 1027811
12:00+24вюв573888 0.0 10272717
15:00+24ююв354025 0.0 10272114
18:00+21зюз11588 0.0 102720
21:00+17вюв2264100 0.0 102716
13 мая, чт
чт1300:00+15вюв34586 0.0 102746
03:00+14вюв35615 0.0 102761
06:00+16вюв4865100 0.0 1027182
09:00+21вюв58455 0.0 1027927
12:00+24юв57375 0.0 10261589
15:00+24юв5639100 0.0 10251729
18:00+21вюв3761100 0.0 1025144
21:00+17юв496510 0.0 1025127
14 мая, пт
пт1400:00+16юв486470 0.0 1025113
03:00+15юв476368 0.0 102597
06:00+17юв496576 0.0 1025197
09:00+22ююв574899 0.0 1025483
12:00+26ююв5736100 0.0 10241297
15:00+25ююв474298 0.0 10231146
18:00+23ююв365699 0.0 1022110
21:00+18ююв476297 0.0 102294